Weather History for Miami, FL

Change the Weather History Date:

Saturday, January 26, 2013

  Actual Average Record
Temperature  
Mean Temperature 69 °F 68 °F  
Max Temperature 79 °F 77 °F 85 °F (1898)
Min Temperature 58 °F 60 °F 29 °F (1905)
Degree Days  
Heating Degree Days 0 1  
Month to date heating degree days 4 51  
Since 1 July heating degree days 20 88  
Cooling Degree Days 4 5  
Month to date cooling degree days 224 130  
Year to date cooling degree days 224 130  
Growing Degree Days 18 (Base 50)    
Moisture  
Dew Point 57 °F    
Average Humidity 69    
Maximum Humidity 90    
Minimum Humidity 47    
Precipitation  
Precipitation 0.00 in 0.05 in 0.43 in (1966)
Month to date precipitation 0.54 1.34  
Year to date precipitation 0.54 1.34  
Snow  
Snow 0.00 in - - ()
Month to date snowfall 0.0  
Since 1 July snowfall 0.0  
Snow Depth 0.00 in    
Sea Level Pressure  
Sea Level Pressure 30.21 in    
Wind  
Wind Speed 4 mph (NNE)    
Max Wind Speed 15 mph    
Max Gust Speed 20 mph    
Visibility 10 miles    
Events      
T = Trace of Precipitation, MM = Missing Value Source: NWS Daily Summary

Daily Weather History Graph

Daily Weather History Graph

Search for Another Location

Airport:

Trip Planner

Search our weather history database for the weather conditions in past years. The results will help you decide how hot, cold, wet, or windy it might be!

Date:

Astronomy

Jan. 26, 2013 Rise Set
Actual Time 7:07 AM EST 6:00 PM EST
Civil Twilight 6:43 AM EST 6:25 PM EST
Nautical Twilight 6:15 AM EST 6:52 PM EST
Astronomical Twilight 5:47 AM EST 7:20 PM EST
Moon 5:49 PM EST (1/26) 6:27 AM EST (1/26)
Length of Visible Light 11h 41m
Length of Day
10h 53m
Full, 100% of the Moon is Illuminated
Jan 26
Full
Jan 26
Full
Feb 3
Last Quarter
Feb 10
New
Feb 17
First Quarter

Hourly Weather History & Observations

Time (EST) Temp. Dew Point Humidity Pressure Visibility Wind Dir Wind Speed Gust Speed Precip Events Conditions
12:53 AM 63.0 °F 55.9 °F 78% 30.22 in 10.0 mi Calm Calm - N/A   Partly Cloudy
1:53 AM 64.9 °F 57.9 °F 78% 30.22 in 10.0 mi NNW 3.5 mph - N/A   Partly Cloudy
2:53 AM 61.0 °F 55.9 °F 83% 30.21 in 10.0 mi Calm Calm - N/A   Partly Cloudy
3:53 AM 60.1 °F 55.9 °F 86% 30.20 in 10.0 mi Calm Calm - N/A   Partly Cloudy
4:53 AM 62.1 °F 57.0 °F 84% 30.20 in 10.0 mi North 3.5 mph - N/A   Clear
5:53 AM 61.0 °F 57.0 °F 87% 30.21 in 10.0 mi NNW 4.6 mph - N/A   Clear
6:53 AM 62.1 °F 55.0 °F 78% 30.22 in 10.0 mi Variable 3.5 mph - N/A   Partly Cloudy
7:53 AM 63.0 °F 54.0 °F 72% 30.24 in 10.0 mi North 4.6 mph - N/A   Partly Cloudy
8:53 AM 66.9 °F 52.0 °F 59% 30.25 in 10.0 mi North 5.8 mph - N/A   Partly Cloudy
9:53 AM 71.1 °F 52.0 °F 51% 30.26 in 10.0 mi North 9.2 mph - N/A   Partly Cloudy
10:53 AM 73.9 °F 55.0 °F 52% 30.26 in 10.0 mi Variable 4.6 mph - N/A   Partly Cloudy
11:53 AM 75.9 °F 55.0 °F 48% 30.24 in 10.0 mi NNW 4.6 mph - N/A   Partly Cloudy
12:53 PM 77.0 °F 55.0 °F 47% 30.21 in 10.0 mi Calm Calm - N/A   Partly Cloudy
1:53 PM 77.0 °F 55.0 °F 47% 30.19 in 10.0 mi Variable 4.6 mph - N/A   Scattered Clouds
2:53 PM 78.1 °F 57.9 °F 50% 30.18 in 10.0 mi East 9.2 mph - N/A   Partly Cloudy
3:53 PM 75.9 °F 59.0 °F 56% 30.17 in 10.0 mi East 11.5 mph - N/A   Scattered Clouds
4:53 PM 75.0 °F 61.0 °F 62% 30.18 in 10.0 mi East 12.7 mph - N/A   Mostly Cloudy
5:53 PM 73.0 °F 61.0 °F 66% 30.19 in 10.0 mi ENE 8.1 mph - N/A   Scattered Clouds
6:53 PM 73.0 °F 61.0 °F 66% 30.19 in 10.0 mi NE 5.8 mph - N/A   Partly Cloudy
7:53 PM 72.0 °F 61.0 °F 68% 30.20 in 10.0 mi NE 3.5 mph - N/A   Clear
8:53 PM 71.1 °F 61.0 °F 70% 30.21 in 10.0 mi Calm Calm - N/A   Clear
9:53 PM 71.1 °F 61.0 °F 70% 30.22 in 10.0 mi Calm Calm - N/A   Clear
10:53 PM 70.0 °F 62.1 °F 76% 30.23 in 10.0 mi NE 3.5 mph - N/A   Partly Cloudy
11:53 PM 71.1 °F 62.1 °F 73% 30.22 in 10.0 mi ENE 3.5 mph - N/A   Partly Cloudy